[[{"header":{"parameterUnit":"m.s-1","parameterCategory":1,"la1":30.2991,"la2":30.254,"lo1":-89.0895,"lo2":-89.0444,"dy":0.0017,"dx":0.0017,"nx":28,"ny":28,"refTime":"2024-08-20T03:00:00:Z","depth":0,"parameterNumber":2,"parameterNumberName":"U-component_of_WINDS"},"data":[0,0,0,0,0,0,0,0,0,0,0,0,0,0,0,0,0,0,0,0,0,0,0,0,0,0,0,0,0,0,0,0,0,0,0,0,0,0,0,0,0,0,0,0,0,0,0,0,0,0,0,0,0,0,0,0,0,0,-2.9081,-2.9081,0,-2.9107,-2.9107,-2.9107,-2.903,-2.9028,-2.9025,-2.9023,-2.905,-2.9053,-2.9056,0,0,0,0,0,0,0,0,0,0,0,0,0,-2.8964,-2.8967,-2.9081,-2.9081,-2.9081,-2.9107,-2.9107,-2.9108,-2.9031,-2.9028,-2.9025,-2.9022,-2.9049,-2.9053,-2.9056,0,0,0,0,0,0,0,0,0,0,0,0,0,-2.9005,-2.8968,-2.908,-2.9046,-2.9043,-2.9107,-2.9107,-2.9108,-2.9031,-2.9028,-2.9024,-2.9021,-2.9048,-2.9052,-2.9057,-2.9155,0,0,-2.907,-2.9072,0,0,0,0,0,0,0,0,-2.9003,-2.901,-2.9051,-2.9048,-2.9045,-2.9062,-2.9076,-2.9124,-2.9032,-2.9036,-2.9023,-2.9019,-2.9057,-2.906,-2.9073,-2.9156,-2.9157,-2.907,-2.9073,-2.9075,-2.9076,0,0,0,0,0,0,0,-2.9,-2.9008,-2.9091,-2.9051,-2.9048,-2.9029,-2.9031,-2.9085,-2.9066,-2.9035,-2.903,-2.9034,-2.9055,-2.9069,-2.9073,-2.9158,-2.907,-2.9074,-2.9077,-2.9079,-2.9325,-2.9328,0,0,0,0,0,0,-2.9002,-2.9006,-2.909,-2.9092,-2.9015,-2.9034,-2.9036,-2.906,-2.9065,-2.9062,-2.9037,-2.903,-2.9063,-2.9068,-2.9074,-2.919,-2.9075,-2.9079,-2.9082,-2.9321,-2.9326,-2.933,0,0,0,0,0,0,-2.9,-2.901,-2.9089,-2.9048,-2.9056,-2.904,-2.9067,-2.9062,-2.9076,-2.9066,-2.9063,-2.9055,-2.9061,-2.9068,-2.9136,-2.919,-2.9081,-2.9085,-2.9316,-2.9322,-2.9328,-2.9423,0,0,0,0,0,0,-2.8997,-2.901,-2.9047,-2.9049,-2.9059,-2.9151,-2.907,-2.9065,-2.9084,-2.9076,-2.9082,-2.908,-2.9058,-2.913,-2.914,-2.9194,-2.9089,-2.9311,-2.9319,-2.9326,-2.9415,-2.9432,-2.9446,0,0,0,0,0,-2.8993,-2.9072,-2.9049,-2.906,-2.9104,-2.9154,-2.9159,-2.9133,-2.9089,-2.9126,-2.912,-2.908,-2.9182,-2.9137,-2.9148,-2.9204,-2.9308,-2.9317,-2.9325,-2.9408,-2.9428,-2.9445,0,0,0,0,0,0,-2.9076,-2.9072,-2.9046,-2.9128,-2.9142,-2.9141,-2.9187,-2.9155,-2.9181,-2.9172,-2.9138,-2.914,-2.9215,-2.9216,-2.9166,-2.9301,-2.9238,-2.9249,-2.9297,-2.9316,-2.9331,-2.9329,-2.9092,0,0,0,0,0,-2.9104,-2.9145,-2.9139,-2.9212,-2.922,-2.9203,-2.9223,-2.9202,-2.9215,-2.922,-2.9218,-2.9233,-2.9268,-2.9292,-2.9324,-2.9415,-2.9416,-2.9459,-2.9475,-2.9487,-2.9498,-2.9547,-2.9567,-2.9359,-2.9358,-2.9358,0,0,-2.9163,-2.9165,-2.9193,-2.9229,-2.9237,-2.928,-2.9208,-2.9256,-2.9288,-2.9227,-2.9292,-2.9291,-2.9305,-2.9386,-2.9421,-2.9389,-2.9555,-2.9498,-2.9509,-2.9512,-2.9558,-2.9578,-2.9595,-2.9364,-2.9363,-2.9362,0,0,-2.9291,-2.9296,-2.9359,-2.9369,-2.9382,-2.937,-2.9386,-2.9389,-2.9387,-2.9451,-2.9407,-2.9444,-2.9506,-2.9518,-2.9532,-2.9667,-2.9631,-2.9678,-2.9758,-2.9807,-2.9823,-2.9837,-2.9886,-2.9904,-2.9688,-2.9689,-2.9689,0,-2.9361,-2.9424,-2.9395,-2.9446,-2.9464,-2.9412,-2.9475,-2.9486,-2.951,-2.9523,-2.9488,-2.9565,-2.957,-2.9653,-2.9686,-2.9699,-2.9716,-2.9677,-2.9823,-2.9837,-2.985,-2.9896,-2.9915,-2.9694,-2.9694,-2.9693,-2.9693,0,-2.951,-2.9555,-2.9604,-2.9628,-2.9651,-2.9709,-2.9689,-2.9716,-2.9693,-2.9685,-2.9752,-2.9757,-2.979,-2.9808,-2.9786,-2.9889,-2.9869,-2.9829,-2.9764,-2.9876,-2.9919,-2.9936,-2.9703,-2.97,-2.9699,-2.9697,0,0,-2.969,-2.9699,-2.9718,-2.9729,-2.9741,-2.9775,-2.9831,-2.9863,-2.9887,-2.9906,-2.9952,-3.0006,-2.9969,-2.9986,-2.9964,-3.0007,-3.0115,-2.9962,-2.9962,-2.9991,-3.023,-3.026,-3.0281,-3.0092,-3.0095,-3.0097,-3.0229,0,-2.9817,-2.9912,-2.9888,-2.9983,-3.0024,-2.9976,-3.0025,-3.0038,-3.0032,-3.0067,-3.0061,-3.01,-3.0048,-3.0058,-3.0098,-3.0093,-3.0163,-3.0084,-3.0135,-3.0137,-3.0133,-3.0303,-3.0335,-3.0458,-3.0245,-3.0248,-3.025,0,-2.9976,-3.0002,-3.0101,-3.0108,-3.0124,-3.0168,-3.0197,-3.023,-3.0245,-3.0238,-3.0257,-3.0228,-3.0284,-3.022,-3.0296,-3.0243,-3.0263,-3.0264,-3.0268,-3.0271,-3.02,-3.0312,-3.0497,-3.0516,-3.0276,-3.0274,-3.0272,0,-3.0098,-3.0158,-3.0225,-3.0236,-3.0245,-3.0278,-3.0283,-3.0294,-3.0315,-3.034,-3.0354,-3.0386,-3.0403,-3.0428,-3.0409,-3.0364,-3.0489,-3.0423,-3.0485,-3.0486,-3.0513,-3.0512,-3.0704,-3.0526,-3.0526,-3.0525,-3.0525,0,-3.0242,-3.0305,-3.028,-3.0321,-3.039,-3.0363,-3.0432,-3.0432,-3.0443,-3.0484,-3.0444,-3.0483,-3.0455,-3.0493,-3.0478,-3.0544,-3.0552,-3.0548,-3.0544,-3.0552,-3.0552,-3.0564,-3.0555,-3.053,-3.0529,-3.0528,-3.0527,0,-3.0389,-3.0375,-3.0446,-3.0449,-3.0452,-3.0503,-3.0506,-3.0545,-3.0537,-3.059,-3.0601,-3.0589,-3.0631,-3.0614,-3.0658,-3.0648,-3.0733,-3.0717,-3.0728,-3.0724,-3.0788,-3.0782,-3.0995,-3.1022,-3.0826,-3.0828,-3.0829,0,-3.0482,-3.0529,-3.0539,-3.0564,-3.0572,-3.0612,-3.0635,-3.061,-3.0635,-3.0656,-3.0693,-3.0731,-3.0761,-3.083,-3.0825,-3.0859,-3.0844,-3.0916,-3.0849,-3.0856,-3.0845,-3.0843,-3.0848,-3.093,-3.0932,-3.0934,-3.0935,0,-3.0648,-3.0639,-3.0672,-3.0705,-3.0732,-3.0756,-3.0776,-3.0799,-3.0776,-3.0806,-3.0849,-3.0872,-3.0918,-3.0957,-3.0988,-3.0993,-3.0961,-3.0957,-3.0973,-3.0982,-3.0987,-3.0985,-3.0765,-3.0952,-3.095,-3.0949,-3.0948,-3.0947,-3.077,-3.0811,-3.0824,-3.0863,-3.0877,-3.0897,-3.0934,-3.0932,-3.0967,-3.1003,-3.0986,-3.1036,-3.1051,-3.1089,-3.1099,-3.1138,-3.111,-3.1133,-3.1139,-3.1146,-3.1154,-3.0981,-3.1144,-3.1143,-3.1143,-3.1142,-3.1142,0,-3.0934,-3.0941,-3.0978,-3.1008,-3.104,-3.1007,-3.1029,-3.1057,-3.1101,-3.1118,-3.1148,-3.1198,-3.1237,-3.1236,-3.1271,-3.1303,-3.1289,-3.1313,-3.131,-3.1312,-3.1177,-3.116,-3.1324,-3.1324,-3.1324,-3.1324,-3.1324,-3.1324,-3.1023,-3.109,-3.1083,-3.1157,-3.1163,-3.1212,-3.1227,-3.1246,-3.126,-3.1317,-3.1349,-3.1349,-3.1359,-3.1395,-3.1429,-3.1428,-3.1443,-3.1473,-3.1466,-3.134,-3.1322,-3.1305,-3.1288,-3.1476,-3.1477,-3.1598,-3.1599,-3.16]},{"header":{"parameterUnit":"m.s-1","parameterCategory":1,"la1":30.2991,"la2":30.254,"lo1":-89.0895,"lo2":-89.0444,"dy":0.0017,"dx":0.0017,"nx":28,"ny":28,"refTime":"2024-08-20T03:00:00:Z","depth":0,"parameterNumber":3,"parameterNumberName":"V-component_of_WINDS"},"data":[0,0,0,0,0,0,0,0,0,0,0,0,0,0,0,0,0,0,0,0,0,0,0,0,0,0,0,0,0,0,0,0,0,0,0,0,0,0,0,0,0,0,0,0,0,0,0,0,0,0,0,0,0,0,0,0,0,0,-2.1802,-2.1802,0,-2.1812,-2.1812,-2.1812,-2.1802,-2.1802,-2.1801,-2.1801,-2.1811,-2.1812,-2.1812,0,0,0,0,0,0,0,0,0,0,0,0,0,-2.1774,-2.1775,-2.1802,-2.1802,-2.1802,-2.1812,-2.1812,-2.1812,-2.1802,-2.1802,-2.1801,-2.1801,-2.1811,-2.1812,-2.1812,0,0,0,0,0,0,0,0,0,0,0,0,0,-2.1786,-2.1775,-2.1802,-2.1799,-2.1798,-2.1812,-2.1812,-2.1813,-2.1802,-2.1802,-2.1801,-2.1801,-2.1811,-2.1811,-2.1812,-2.183,0,0,-2.1815,-2.1816,0,0,0,0,0,0,0,0,-2.1785,-2.1787,-2.1799,-2.1799,-2.1799,-2.1805,-2.1806,-2.1819,-2.1802,-2.1801,-2.1801,-2.18,-2.181,-2.1811,-2.1814,-2.1831,-2.1831,-2.1815,-2.1816,-2.1816,-2.1817,0,0,0,0,0,0,0,-2.1784,-2.1786,-2.1806,-2.1799,-2.1799,-2.1796,-2.1797,-2.1809,-2.1808,-2.1801,-2.18,-2.1801,-2.1809,-2.1813,-2.1814,-2.1831,-2.1815,-2.1816,-2.1817,-2.1817,-2.1865,-2.1866,0,0,0,0,0,0,-2.1784,-2.1786,-2.1806,-2.1806,-2.179,-2.1797,-2.1798,-2.1804,-2.1808,-2.1808,-2.1802,-2.1801,-2.1812,-2.1813,-2.1814,-2.1837,-2.1816,-2.1817,-2.1818,-2.1864,-2.1865,-2.1866,0,0,0,0,0,0,-2.1783,-2.1786,-2.1805,-2.1796,-2.1798,-2.1799,-2.1805,-2.1804,-2.1808,-2.1809,-2.1809,-2.1806,-2.1811,-2.1813,-2.1827,-2.1837,-2.1818,-2.1819,-2.1863,-2.1865,-2.1865,-2.1881,0,0,0,0,0,0,-2.1783,-2.1786,-2.1792,-2.1796,-2.1799,-2.1818,-2.1805,-2.1805,-2.1809,-2.1808,-2.1812,-2.1813,-2.1811,-2.1825,-2.1828,-2.1838,-2.1819,-2.1863,-2.1864,-2.1865,-2.1879,-2.1882,-2.1885,0,0,0,0,0,-2.1782,-2.1796,-2.1793,-2.1795,-2.1807,-2.1818,-2.182,-2.1817,-2.181,-2.1817,-2.1818,-2.1812,-2.1835,-2.1827,-2.1829,-2.184,-2.1862,-2.1864,-2.1865,-2.1878,-2.1882,-2.1885,0,0,0,0,0,0,-2.1793,-2.1796,-2.1793,-2.1809,-2.1813,-2.1817,-2.1825,-2.1821,-2.1828,-2.1826,-2.1823,-2.1824,-2.1839,-2.1841,-2.1831,-2.1858,-2.1847,-2.185,-2.1857,-2.186,-2.1862,-2.1862,-2.182,0,0,0,0,0,-2.1798,-2.1806,-2.1809,-2.1823,-2.1825,-2.1825,-2.183,-2.1827,-2.1832,-2.1834,-2.1836,-2.184,-2.1849,-2.1854,-2.1862,-2.1879,-2.1881,-2.1888,-2.189,-2.1893,-2.1895,-2.1905,-2.1909,-2.1871,-2.1871,-2.1871,0,0,-2.1807,-2.181,-2.1815,-2.1825,-2.1828,-2.1838,-2.1826,-2.1837,-2.1844,-2.1835,-2.1849,-2.185,-2.1855,-2.1872,-2.1879,-2.1874,-2.1905,-2.1895,-2.1896,-2.1897,-2.1907,-2.1911,-2.1914,-2.1872,-2.1872,-2.1872,0,0,-2.1829,-2.1831,-2.1844,-2.1848,-2.1853,-2.1853,-2.1856,-2.186,-2.186,-2.1874,-2.1868,-2.1876,-2.189,-2.1895,-2.1898,-2.1923,-2.1918,-2.1925,-2.1939,-2.1949,-2.1952,-2.1955,-2.1965,-2.1968,-2.1927,-2.1927,-2.1927,0,-2.184,-2.1854,-2.1851,-2.1862,-2.1867,-2.1859,-2.1872,-2.1876,-2.1883,-2.1887,-2.1881,-2.1899,-2.1902,-2.1919,-2.1925,-2.1928,-2.1932,-2.1925,-2.1952,-2.1955,-2.1957,-2.1967,-2.197,-2.1928,-2.1928,-2.1928,-2.1928,0,-2.1867,-2.1877,-2.1887,-2.1895,-2.19,-2.1912,-2.1911,-2.1917,-2.1915,-2.1915,-2.193,-2.1933,-2.1941,-2.1945,-2.1942,-2.1962,-2.1959,-2.1953,-2.1942,-2.1962,-2.1971,-2.1974,-2.1929,-2.1929,-2.1929,-2.1929,0,0,-2.1897,-2.1904,-2.1907,-2.1911,-2.1917,-2.1924,-2.1936,-2.1945,-2.1951,-2.1956,-2.1966,-2.1978,-2.1973,-2.1977,-2.1975,-2.1984,-2.2004,-2.1976,-2.1976,-2.1982,-2.2028,-2.2034,-2.2038,-2.2001,-2.2001,-2.2002,-2.2028,0,-2.192,-2.1941,-2.1939,-2.1959,-2.1968,-2.1962,-2.1972,-2.1977,-2.1978,-2.1986,-2.1987,-2.1996,-2.1987,-2.199,-2.1998,-2.2,-2.2013,-2.1998,-2.2011,-2.2011,-2.2011,-2.2042,-2.2048,-2.2072,-2.2031,-2.2032,-2.2032,0,-2.195,-2.1957,-2.1978,-2.1983,-2.1987,-2.1996,-2.2004,-2.2012,-2.2017,-2.2017,-2.2023,-2.2019,-2.2031,-2.202,-2.2037,-2.2027,-2.2032,-2.2033,-2.2034,-2.2036,-2.2024,-2.2046,-2.208,-2.2084,-2.2037,-2.2037,-2.2036,0,-2.1971,-2.1986,-2.2,-2.2004,-2.2009,-2.2016,-2.2019,-2.2024,-2.2029,-2.2036,-2.204,-2.2048,-2.2053,-2.206,-2.2059,-2.205,-2.2077,-2.2065,-2.2078,-2.2078,-2.2084,-2.2084,-2.2121,-2.2086,-2.2086,-2.2086,-2.2086,0,-2.1998,-2.2011,-2.201,-2.2019,-2.2034,-2.2032,-2.2046,-2.2048,-2.2053,-2.2062,-2.2057,-2.2066,-2.2063,-2.2072,-2.2071,-2.2087,-2.2088,-2.2089,-2.2089,-2.209,-2.2091,-2.2095,-2.2093,-2.2087,-2.2086,-2.2086,-2.2086,0,-2.2024,-2.2024,-2.204,-2.2044,-2.2045,-2.2056,-2.206,-2.2069,-2.2069,-2.2082,-2.2084,-2.2085,-2.2096,-2.2095,-2.2107,-2.2106,-2.2125,-2.2122,-2.2124,-2.2124,-2.2137,-2.2136,-2.2178,-2.2184,-2.2144,-2.2145,-2.2145,0,-2.2042,-2.2052,-2.2057,-2.2064,-2.2067,-2.2077,-2.2083,-2.2081,-2.2087,-2.2094,-2.2102,-2.2112,-2.2121,-2.2138,-2.214,-2.2149,-2.2147,-2.2161,-2.2148,-2.215,-2.2148,-2.2148,-2.215,-2.2164,-2.2164,-2.2165,-2.2165,0,-2.2073,-2.2073,-2.2081,-2.2091,-2.2098,-2.2105,-2.2111,-2.2116,-2.2115,-2.2122,-2.2133,-2.214,-2.2152,-2.2162,-2.2171,-2.2174,-2.217,-2.2169,-2.2172,-2.2174,-2.2175,-2.2176,-2.2132,-2.2168,-2.2168,-2.2167,-2.2167,-2.2167,-2.2096,-2.2106,-2.2111,-2.2122,-2.2126,-2.2132,-2.2141,-2.2143,-2.2152,-2.2162,-2.216,-2.2173,-2.2178,-2.219,-2.2194,-2.2204,-2.2199,-2.2204,-2.2205,-2.2207,-2.2209,-2.2173,-2.2205,-2.2205,-2.2205,-2.2205,-2.2205,0,-2.2129,-2.2132,-2.2141,-2.2151,-2.2159,-2.2154,-2.2161,-2.2168,-2.2179,-2.2185,-2.2193,-2.2206,-2.2216,-2.2219,-2.2229,-2.2236,-2.2235,-2.2239,-2.2239,-2.224,-2.2212,-2.2209,-2.2241,-2.2241,-2.224,-2.224,-2.224,-2.224,-2.2146,-2.2162,-2.2163,-2.2181,-2.2184,-2.2196,-2.2201,-2.2207,-2.2211,-2.2226,-2.2235,-2.2237,-2.2241,-2.2252,-2.2261,-2.2261,-2.2266,-2.2272,-2.2271,-2.2245,-2.2242,-2.2239,-2.2235,-2.2272,-2.2272,-2.2299,-2.2299,-2.2299]}]]